RH
17 18 19 21 22 23 23 24 23 22 21 21 20 21 22 23 24 26 28 30 33 35 40 46 50 56 61 66 69 56 33 24 25 26 26 27 28 31 33 35 39 49
20 19 20 22 24 24 25 26 26 25 24 22 21 20 23 27 29 30 30 31 33 37 46 55 60 64 65 58 52 41 27 23 24 24 25 26 28 30 32 37 41 45
24 22 22 24 26 27 29 30 29 28 26 24 22 21 23 28 32 35 36 36 35 37 50 63 66 61 52 38 29 25 22 22 23 22 23 24 27 30 32 38 43 44
26 24 26 28 30 31 32 32 33 35 36 35 32 30 29 30 33 38 44 46 42 37 40 48 48 39 31 24 21 22 22 22 21 21 22 23 26 30 31 36 43 44
29 28 30 32 34 36 36 39 48 59 66 69 68 61 50 41 40 48 58 58 51 42 34 29 28 24 22 22 22 22 22 22 22 21 21 22 25 29 31 35 41 44
31 32 36 41 47 52 54 59 70 82 90 93 96 93 81 68 62 65 70 64 51 42 34 25 21 21 21 21 22 22 21 22 22 22 22 23 24 28 31 34 38 42
36 42 50 58 65 70 73 77 83 89 92 95 99 98 88 78 73 72 71 62 46 34 29 24 21 20 20 20 21 21 21 21 22 23 24 24 24 27 30 32 35 38
46 55 63 69 74 79 80 80 80 80 82 85 91 95 87 72 62 60 60 53 39 28 24 22 21 19 19 19 20 21 21 22 23 24 25 24 24 26 28 31 33 35
54 60 66 69 70 72 71 69 69 69 71 73 77 86 91 83 71 62 56 50 41 33 26 22 20 19 18 19 20 21 21 22 23 24 25 26 24 25 27 30 32 33
54 59 62 64 63 62 61 62 64 65 67 71 75 79 83 84 82 76 66 58 50 39 30 23 20 18 18 19 20 21 22 22 23 25 26 26 25 25 27 30 31 33
52 56 59 61 61 60 60 60 63 63 60 63 72 82 83 77 75 76 71 64 55 42 31 26 22 20 18 19 20 21 22 22 24 26 27 27 26 25 26 29 31 32
50 53 56 59 59 59 59 59 60 61 57 52 55 71 87 85 73 70 69 64 55 43 33 27 23 21 19 19 20 20 21 23 24 26 28 28 27 27 28 28 29 32
49 51 53 54 55 54 54 56 57 58 56 52 47 53 77 90 82 71 66 60 52 43 34 28 24 21 20 19 20 21 22 24 25 27 28 29 28 29 29 28 29 32
45 47 48 48 48 49 50 52 53 53 50 50 49 49 62 78 77 68 61 54 47 39 32 28 24 22 21 21 21 21 23 25 27 28 29 29 30 32 31 31 30 31
46 46 46 46 46 45 46 46 47 50 51 54 58 57 57 62 61 55 50 45 40 35 30 26 23 22 22 21 22 23 24 27 28 30 30 30 32 34 34 34 33 32
68 68 66 64 63 59 58 59 59 62 64 64 63 58 53 51 47 43 40 36 33 30 28 25 23 22 22 22 23 25 26 28 29 30 32 33 33 34 35 37 36 35
82 80 77 74 73 72 70 69 67 64 60 55 51 47 44 41 38 36 33 31 29 27 26 26 25 25 25 26 27 28 29 30 30 32 34 34 35 35 36 37 37 37
59 58 56 54 53 53 52 50 47 44 41 38 36 34 33 33 31 31 29 28 28 28 28 29 30 30 31 31 31 31 30 31 31 34 35 36 37 37 37 37 37 38
36 35 35 35 34 34 33 32 31 31 30 30 30 30 30 31 31 31 31 31 31 31 32 33 34 34 33 33 33 33 32 33 34 35 36 37 39 38 38 39 39 38
32 31 31 31 31 31 31 30 30 31 31 31 32 32 33 33 33 34 34 34 34 34 35 35 36 36 36 37 37 37 37 37 37 38 38 38 39 40 40 41 41 40
37 36 35 34 34 34 34 35 35 35 35 36 37 38 38 38 37 37 37 36 37 37 37 38 38 39 40 42 43 43 43 43 42 43 42 41 41 42 42 42 43 43
43 43 42 41 41 41 41 42 42 42 42 43 44 45 45 45 44 43 43 43 43 42 42 43 43 43 44 45 46 45 45 45 44 43 42 42 42 42 42 43 43 42
31 33 35 35 36 37 38 39 40 41 41 41 41 41 41 42 42 42 42 41 41 42 42 41 41 41 40 39 39 38 37 36 35 33 32 32 32 33 34 34 35 36
19 20 20 22 22 23 24 25 25 25 26 26 26 25 26 26 26 26 26 26 27 27 27 27 28 26 25 25 24 23 22 21 20 19 19 19 19 20 20 21 22 24
20 20 19 20 19 19 19 18 18 18 18 18 18 18 18 18 18 17 17 17 16 16 16 17 17 17 17 17 15 14 14 13 13 13 13 14 14 13 14 15 15 16
23 22 21 21 21 21 21 20 20 20 20 20 21 21 20 20 20 20 19 19 18 18 18 18 18 19 19 18 17 16 14 13 14 14 14 14 14 13 14 16 16 18
Wind_Speed
16 15 15 14 13 13 13 13 13 11 8 7 6 6 5 6 6 7 9 10 11 12 13 14 15 16 16 16 16 17 18 19 20 22 23 24 26 27 29 30 30 31
17 17 16 15 15 15 15 15 15 13 12 11 10 9 8 8 8 9 11 13 14 15 16 16 17 17 17 17 17 17 18 19 21 22 23 24 26 27 29 31 31 32
18 18 17 17 17 17 17 17 16 15 14 14 13 13 12 11 11 12 13 15 17 18 17 16 17 17 18 18 18 18 19 20 21 22 23 25 26 28 29 31 32 33
18 18 18 18 18 18 17 17 16 15 15 15 16 16 16 16 16 16 16 17 19 21 19 18 17 18 19 19 19 20 20 21 23 23 23 25 26 28 29 31 32 34
19 19 19 18 18 17 17 16 15 15 16 17 18 19 19 19 20 20 20 20 21 22 22 21 20 20 21 22 22 22 22 23 24 25 25 25 27 28 29 31 32 34
21 19 18 18 17 17 17 16 16 16 17 18 20 21 22 22 22 22 22 22 22 23 25 24 23 22 23 24 24 24 24 25 26 26 26 26 27 28 30 31 32 33
21 20 19 19 18 18 18 17 17 17 18 19 21 23 23 23 23 24 24 23 23 24 26 26 26 25 25 26 26 26 27 27 27 28 28 27 28 29 30 32 33 33
24 23 22 21 20 20 19 19 19 20 20 22 23 24 25 24 24 24 24 25 25 26 27 28 28 27 28 28 28 28 29 29 29 30 30 29 29 30 31 33 34 34
27 27 25 24 23 22 21 21 22 22 24 25 26 26 27 26 25 25 25 26 26 27 28 29 30 30 30 30 30 30 30 31 31 31 32 32 31 31 32 33 35 35
31 30 29 28 26 25 25 25 25 25 26 28 28 28 29 29 28 27 27 27 27 28 30 31 31 32 32 31 31 31 32 32 32 33 34 34 33 32 33 34 35 36
34 32 32 31 30 29 29 29 29 29 30 30 30 31 31 31 31 30 30 29 29 30 31 33 33 33 34 33 33 34 34 35 35 35 36 36 36 35 35 36 36 36
36 35 35 35 33 33 33 33 34 34 33 33 34 34 33 33 33 32 32 31 31 32 33 34 34 35 36 36 36 36 36 37 37 37 38 38 38 38 38 38 37 37
38 38 38 37 36 36 37 37 38 38 37 37 37 37 36 36 35 35 34 34 34 34 35 35 36 36 38 38 38 38 38 39 39 40 40 40 40 40 41 41 40 39
40 41 40 39 39 39 39 40 40 41 41 41 40 39 38 38 38 37 37 36 36 36 36 37 37 39 40 41 41 41 40 41 41 42 42 42 42 43 44 44 43 42
42 43 42 42 41 42 42 43 43 43 43 43 42 41 40 40 40 39 39 38 38 38 38 39 39 41 42 42 42 43 43 43 43 44 45 45 45 45 46 47 46 46
44 44 44 44 43 44 44 44 45 45 45 44 43 43 42 42 41 41 41 40 40 40 40 41 42 43 44 44 45 46 46 46 46 46 47 47 48 48 49 49 49 48
46 46 46 46 45 45 45 45 45 45 45 45 44 44 44 43 43 44 43 43 43 43 43 43 44 45 46 47 47 48 48 48 48 49 49 50 50 51 51 51 51 50
49 49 48 48 47 47 46 46 46 46 46 46 46 46 46 46 46 47 46 46 46 46 46 46 47 48 49 50 50 51 51 50 50 51 51 52 53 53 53 54 54 53
51 50 50 49 49 48 48 48 48 48 49 49 49 49 49 49 49 50 50 50 50 50 49 49 50 51 52 52 53 53 53 52 52 53 54 54 55 55 55 56 56 56
53 53 52 52 52 51 51 51 51 52 52 52 52 52 52 52 53 53 54 54 53 53 53 53 53 54 55 55 55 55 55 55 55 55 56 57 57 58 58 58 59 59
56 56 55 55 54 54 53 54 54 55 55 55 55 54 54 55 55 56 56 57 57 57 56 56 57 58 58 59 59 58 58 58 58 59 59 60 60 60 61 61 62 62
58 58 58 58 57 57 57 58 58 59 59 58 58 58 58 58 58 58 58 59 59 59 59 60 61 61 62 63 63 63 62 62 61 62 63 63 63 64 64 64 65 66
59 59 59 59 59 60 61 61 62 62 62 62 62 62 62 61 61 61 61 62 62 62 62 63 63 64 65 66 67 66 66 66 65 65 65 66 66 66 67 67 67 68
55 55 56 57 57 58 59 60 61 61 61 62 62 63 63 63 63 63 63 63 63 63 63 63 64 64 65 66 68 68 68 67 67 66 65 66 67 68 68 68 68 68
50 51 52 53 53 54 54 55 55 56 56 57 57 57 57 58 58 59 59 60 60 60 60 60 60 61 62 63 65 67 66 65 65 64 63 63 64 65 66 66 66 66
46 47 48 48 49 49 49 49 49 50 50 50 51 51 51 52 53 53 54 55 55 55 54 55 55 55 56 58 60 62 63 62 61 60 60 60 60 61 62 62 62 60
Wind_Direction
224 226 230 237 243 250 255 258 262 265 266 264 262 258 258 269 282 292 296 297 298 299 303 307 312 316 322 327 331 335 337 338 340 342 343 343 343 344 346 348 350 355
229 229 233 238 242 247 251 256 262 267 271 271 270 268 263 267 276 285 291 296 297 300 303 307 311 314 319 324 328 330 332 334 336 339 340 340 339 340 343 344 346 351
234 233 236 239 243 246 250 255 260 264 267 271 273 274 273 275 278 282 289 294 296 300 304 307 310 312 316 320 325 326 328 330 331 335 338 338 338 338 339 341 343 347
240 237 239 242 244 247 250 254 260 266 270 273 275 277 277 279 282 285 288 290 292 296 301 305 307 310 313 317 321 323 325 327 329 332 335 336 336 336 337 337 340 344
241 238 238 241 244 248 252 256 264 272 277 280 280 279 278 279 282 286 289 289 289 292 296 301 305 308 311 314 317 320 323 325 327 330 333 334 333 334 335 335 337 341
239 237 237 240 244 250 255 261 268 275 280 284 285 283 282 282 283 286 289 290 289 290 293 298 303 306 309 311 314 317 320 322 325 328 331 332 331 331 333 333 335 339
237 237 239 242 247 252 257 262 268 273 278 280 283 284 285 284 285 287 288 290 290 290 292 295 300 304 306 308 310 314 317 320 323 326 328 329 329 329 330 330 332 336
235 237 240 244 247 252 257 263 267 272 275 277 279 282 283 283 284 286 287 289 290 292 293 294 297 301 302 304 307 311 314 317 320 322 324 326 326 327 327 327 328 332
234 236 240 243 247 251 256 261 266 271 274 276 278 280 281 282 284 286 287 288 291 293 293 293 295 297 299 301 305 307 310 314 317 319 321 322 323 324 324 324 325 328
235 238 242 245 249 253 257 261 265 268 272 275 278 279 280 280 282 284 286 288 290 292 291 291 292 295 296 299 301 304 306 310 314 316 317 318 320 321 321 321 322 325
238 240 244 248 252 256 259 262 265 267 270 274 277 278 279 280 280 282 283 285 287 288 288 289 291 293 294 296 298 300 303 307 310 312 313 315 317 318 319 318 320 322
240 241 244 248 252 256 260 263 265 267 270 273 276 276 277 278 279 280 281 282 283 285 285 287 290 291 292 293 295 298 301 304 307 309 310 311 313 314 315 316 317 318
242 243 245 248 252 255 259 261 264 266 268 271 273 274 275 276 277 278 279 280 281 283 284 286 288 289 290 292 294 297 300 302 304 306 307 308 310 311 312 313 314 315
245 247 248 250 253 255 258 260 262 265 267 269 271 272 272 273 275 276 277 279 280 281 283 285 287 288 289 291 293 296 298 300 302 303 304 306 308 308 309 310 311 312
249 251 253 254 255 257 259 260 262 265 267 268 270 271 271 271 273 275 276 278 279 281 282 284 285 286 288 290 293 294 296 298 299 300 302 304 305 306 306 308 309 309
253 255 256 257 258 259 260 262 264 265 267 269 270 270 271 272 274 275 276 277 279 280 281 282 284 286 288 290 292 293 294 296 297 299 300 302 303 303 304 305 306 306
255 256 257 258 259 260 261 262 264 266 267 269 270 271 273 274 275 276 277 278 279 280 281 282 284 287 288 290 290 291 293 294 296 297 298 299 300 301 301 302 303 303
256 257 257 258 259 260 261 262 264 266 267 269 270 272 273 274 275 276 277 278 279 280 282 283 285 286 287 288 288 290 291 293 294 296 297 297 298 298 298 299 300 300
258 258 259 260 261 262 263 264 265 266 268 269 271 272 273 274 276 277 278 279 280 281 282 284 284 285 285 286 287 288 290 291 293 293 294 294 294 295 295 296 297 298
260 261 261 262 262 264 265 266 267 268 269 270 271 273 274 275 276 278 279 280 281 282 282 283 284 284 285 286 287 288 289 291 291 291 292 292 292 293 293 294 295 295
260 261 262 263 264 265 267 268 268 269 270 271 272 273 274 275 276 277 278 280 281 281 282 283 283 284 285 286 286 287 289 290 290 290 290 290 291 291 291 292 293 293
260 261 263 264 265 266 266 267 267 268 270 270 271 272 272 273 274 275 276 277 279 279 281 281 282 283 284 284 285 286 287 288 288 288 289 289 289 289 290 290 290 291
262 263 264 265 265 266 266 266 267 268 270 271 271 272 273 273 274 274 275 276 277 278 279 280 281 282 283 283 284 285 285 286 286 286 287 287 287 288 288 288 289 289
264 264 264 265 265 266 267 268 269 270 271 272 273 274 275 275 276 276 276 276 277 277 278 279 280 281 282 282 283 283 283 284 284 285 285 285 286 286 287 287 288 288
261 262 262 263 264 265 267 268 270 271 272 273 274 275 276 277 278 278 278 278 279 279 279 280 280 281 282 283 283 283 283 284 284 285 285 285 285 286 286 287 287 288
258 260 261 262 263 265 266 267 269 270 271 272 273 274 275 276 277 279 280 281 281 281 282 282 282 283 283 283 284 285 285 285 286 286 285 285 285 285 285 285 286 288